Location: Liscomb Game Sanctuary
(45.1633°N, 62.5575°W)
Time: 19:52:14
(UTC-03:00)

Daily predictions for brighter satellites

Satellite Brightness Start Highest point End
(mag) Time Altitude Azimuth Time Altitude Azimuth Time Altitude Azimuth
SL-8 Rocket 4.5 20:27:08 10° SSE 20:32:56 40° E 20:38:42 10° NNE
Cosmos 1939 Rocket 3.1 20:31:25 10° SSE 20:35:08 49° ENE 20:38:54 10° N
Cosmos 1633 Rocket 3.2 20:32:40 10° N 20:37:02 80° W 20:41:23 10° S
CZ-2D R/B 3.5 20:33:25 10° S 20:37:13 71° WSW 20:41:03 10° NNW
Genesis I 4.2 20:34:13 10° NW 20:38:10 49° WSW 20:42:05 10° SSE
Meteor 2-16 Rocket 4.5 20:32:19 10° S 20:38:23 67° E 20:44:27 10° NNE
Cosmos 407 Rocket 4.4 20:34:16 10° N 20:38:53 32° ENE 20:43:28 10° ESE
Meteor 1-27 4.2 20:33:13 10° S 20:38:53 70° E 20:44:30 10° NNE
Cosmos 2278 Rocket 2.2 20:33:54 10° NNW 20:39:37 79° ENE 20:45:17 10° SSE
Cosmos 1340 4.4 20:42:49 10° SW 20:46:23 39° WNW 20:49:59 10° N
USA 186 0.9 20:46:23 10° SSE 20:48:38 90° W 20:51:01 10° NNW
Lacrosse 5 3.6 20:46:19 10° NW 20:50:27 24° NNE 20:54:35 10° ENE
Cosmos 1515 Rocket 3.6 20:48:21 10° S 20:52:45 63° E 20:57:11 10° NNE
Cosmos 1371 Rocket 4.3 20:51:22 10° S 20:56:28 49° ESE 21:01:38 10° NNE
Cosmos 1825 2.2 20:56:36 10° N 21:00:23 65° E 21:04:08 10° SSE
BREEZE-M DEB (TANK) 3.6 20:51:54 10° W 21:00:40 53° NNW 21:03:35 10° ENE
Envisat 4.0 20:55:47 10° S 21:00:42 49° W 21:05:39 10° NNW
CZ-4C R/B 3.6 21:00:12 11° SE 21:02:31 14° ESE 21:05:20 10° ENE
Cosmos 405 Rocket 4.2 21:00:23 12° SE 21:02:39 19° E 21:05:30 10° NE
H-2A R/B 3.2 21:02:42 12° ESE 21:06:13 25° ENE 21:10:14 10° N
Cosmos 1328 Rocket 4.2 21:03:36 10° SSW 21:07:58 62° W 21:12:25 10° N
Cosmos 2344 4.3 21:03:37 10° SSE 21:09:56 29° ESE 21:16:36 10° NE
Cosmos 1943 Rocket 4.3 21:10:23 10° NNE 21:12:54 13° NE 21:15:24 10° ENE
Cosmos 2228 Rocket 3.2 21:08:37 10° SSW 21:13:00 80° W 21:17:27 10° N
Meteor 2-10 Rocket 4.0 21:08:07 10° SSE 21:13:39 51° E 21:19:17 10° NNE
ARGOS 3.8 21:10:05 14° SE 21:14:18 39° ENE 21:19:16 10° N
BREEZE-M DEB (TANK) 3.3 21:13:20 10° W 21:15:47 33° N 21:17:53 10° ENE
OE (NEXTSAT) 4.5 21:13:31 10° W 21:17:06 78° N 21:19:49 16° E
Cosmos 2056 Rocket 3.6 21:12:14 10° S 21:17:34 60° ESE 21:22:52 10° NNE
Cosmos 1862 4.0 21:15:09 10° N 21:18:55 36° ENE 21:21:14 19° SE
ATLAS 2AS CENTAUR R/B 4.0 21:15:17 10° NW 21:22:30 41° WSW 21:29:10 10° S
Cosmos 1408 3.3 21:19:34 10° NNW 21:23:11 54° W 21:26:48 10° S
SL-16 R/B 2.3 21:18:09 10° S 21:23:35 50° ESE 21:29:03 10° NE
Cosmos 1140 Rocket 4.0 21:20:16 10° N 21:25:11 42° ENE 21:28:21 20° ESE
Cosmos 1190 Rocket 4.0 21:28:07 10° NNW 21:33:26 88° WSW 21:37:37 16° SSE
Cosmos 1624 Rocket 3.9 21:28:44 10° SSW 21:33:56 86° ESE 21:39:10 10° NNE
Cosmos 2098 Rocket 2.7 21:32:50 10° S 21:37:12 87° W 21:40:42 10° N
Resurs 01 Rocket 3.0 21:36:58 10° SSW 21:41:05 37° W 21:45:12 10° NNW
Spot 2 Rocket 4.2 21:38:12 10° S 21:43:09 52° W 21:48:08 10° NNW
Cosmos 1727 Rocket 3.9 21:37:03 10° N 21:43:17 88° E 21:48:51 13° S
Cosmos 405 3.1 21:40:10 10° NNW 21:43:41 73° W 21:45:47 22° S
Cosmos 1954 Rocket 4.1 21:39:37 10° NNW 21:44:48 62° ENE 21:47:37 26° SE
MetOp-A 4.1 21:48:07 21° SSE 21:51:44 81° ENE 21:57:06 10° NNW
SL-8 R/B 3.9 21:48:00 10° W 21:52:47 70° NNW 21:57:25 11° ENE
NOSS 3-4 (A) 4.0 21:46:35 10° NW 21:53:35 70° WSW 21:58:47 22° SSE
NOSS 3-4 (C) 4.0 21:46:41 10° NW 21:53:41 71° WSW 21:58:52 22° SSE
Cosmos 2297 3.9 21:49:57 10° NNW 21:55:35 68° WSW 21:59:24 21° S
Cosmos 2369 Rocket 3.3 21:51:13 10° N 21:56:15 31° NE 21:58:44 22° E
USA 267 4.4 21:55:49 10° ENE 21:58:56 21° E 21:58:56 21° E
Helios 1A 3.3 22:00:35 38° ESE 22:01:40 47° ENE 22:05:43 10° N
Terra 3.2 22:01:13 21° E 22:02:17 23° ENE 22:06:01 10° NNE
Cosmos 1441 Rocket 3.3 22:02:08 18° SSW 22:04:47 71° W 22:08:34 10° N
Cosmos 614 Rocket 3.9 21:59:53 10° NNW 22:05:08 89° W 22:07:36 32° SSE
Cosmos 1707 Rocket 3.4 22:05:01 28° S 22:07:15 81° E 22:11:36 10° N
Cosmos 1933 3.2 22:09:53 45° SSE 22:11:02 72° E 22:15:07 10° NNE
ERS-1 Rocket 2.9 22:09:54 34° SSE 22:12:10 86° ENE 22:17:13 10° NNW
ATLAS 5 CENTAUR R/B 3.1 22:08:51 10° NNW 22:14:21 43° NE 22:17:16 27° E
Cosmos 1869 Rocket 4.2 22:10:18 10° NNW 22:14:33 53° W 22:16:54 24° SSW
Cosmos 2237 Rocket 4.1 22:10:28 10° WSW 22:15:24 31° NW 22:20:23 10° N
SL-08 RB Rocket 3.7 22:15:44 35° S 22:17:33 74° WSW 22:22:03 10° NNW
Cosmos 1420 Rocket 3.9 22:15:04 25° S 22:18:06 67° ESE 22:23:25 10° NNE
Cosmos 1241 Rocket 4.4 22:13:21 10° NNW 22:19:42 83° ENE 22:22:22 38° SE
IGS 5A 4.4 22:20:05 32° ENE 22:20:12 32° ENE 22:23:56 10° N
Cosmos 1633 3.7 22:17:47 10° N 22:20:25 30° NE 22:20:25 30° NE
Cosmos 1733 Rocket 3.1 22:18:42 10° N 22:23:01 55° ENE 22:23:26 52° ESE
CARTOSAT-1 4.3 22:24:51 36° ENE 22:25:03 37° ENE 22:29:02 10° N
GEOS 3 Rocket 3.9 22:21:48 10° NE 22:26:56 44° ESE 22:27:03 44° SE
Meteor 1-4 Rocket 3.6 22:25:20 10° N 22:27:49 32° NE 22:27:49 32° NE
Meteor 1-25 Rocket 4.4 22:26:48 10° N 22:32:29 58° ENE 22:33:48 47° SE
CZ-2C R/B 4.0 22:33:29 28° ENE 22:33:52 29° ENE 22:38:00 10° N
Lacrosse 5 2.2 22:29:16 10° NW 22:34:18 59° NE 22:35:36 44° E
Cosmos 1605 Rocket 4.3 22:34:37 41° ESE 22:35:54 47° E 22:41:59 10° NNE
SPOT 5 2.6 22:35:32 62° SSE 22:36:17 90° WSW 22:40:43 10° NNW
USA 234 4.3 22:31:09 13° E 22:36:27 39° NNE 22:42:25 10° NW
SL-19 R/B 4.2 22:35:26 48° SE 22:37:02 76° ENE 22:42:41 10° NNW
SPOT 1/Viking Rocket 3.5 22:36:09 51° SSE 22:37:32 86° ENE 22:42:47 10° NNW
Cosmos 405 Rocket 4.4 22:35:30 13° SW 22:38:26 32° WNW 22:42:02 10° N
Meteor 1-26 Rocket 4.0 22:38:56 48° S 22:40:31 76° E 22:46:07 10° NNE
DMSP B5D2-2 4.0 22:35:39 10° NNE 22:40:57 81° ESE 22:42:31 47° S
Intercosmos 24 4.5 22:38:53 33° S 22:41:35 87° W 22:46:01 10° N
H-2A R/B 2.8 22:43:18 28° SSW 22:45:26 43° W 22:50:10 10° NNW
Cosmos 1437 Rocket 3.0 22:44:46 10° NNW 22:48:33 64° W 22:48:33 64° W
CZ-4C R/B 2.1 22:44:58 12° SW 22:49:53 88° NW 22:55:57 10° NE
Meteor 1-20 Rocket 4.0 22:45:38 10° N 22:51:07 76° ENE 22:52:00 62° SE
Cosmos 1943 Rocket 2.2 22:52:21 10° NNW 22:57:50 61° ENE 22:58:32 56° E
Cosmos 1934 Rocket 3.9 22:56:41 43° SSW 22:58:51 83° W 23:04:57 10° N
Spot 1 4.3 22:59:41 69° SSW 23:00:06 74° WSW 23:04:47 10° NNW
Cosmos 1452 Rocket 4.4 22:55:13 10° SW 23:00:15 47° WNW 23:05:20 10° N
Cosmos 2242 Rocket 3.7 23:02:41 66° W 23:02:52 67° W 23:07:17 10° N
Helios 1B rocket 2.7 23:00:53 10° N 23:04:56 64° WNW 23:04:56 64° WNW
RESURS DK-1 2.8 23:02:35 10° NNW 23:06:05 61° NNW 23:06:05 61° NNW
BREEZE M DEB (TANK) 4.0 22:54:31 10° W 23:07:31 60° N 23:09:52 28° ENE
SL-16 R/B 4.1 23:03:05 10° WSW 23:07:58 29° NW 23:12:52 10° N
Gblst 52 Del rocket 4.0 23:11:55 10° WSW 23:17:26 86° NNW 23:23:04 10° ENE
Cosmos 1908 Rocket 3.9 23:14:50 10° N 23:18:37 63° N 23:18:37 63° N
H-2A R/B 4.3 23:20:55 16° NE 23:20:55 16° NE 23:23:19 10° NNE
Cosmos 921 Rocket 3.7 23:21:56 52° WNW 23:21:56 52° WNW 23:26:01 10° N
Cosmos 2344 4.0 23:16:04 10° SW 23:23:36 63° NW 23:32:18 10° NE
Cosmos 1153 Rocket 4.4 23:23:26 68° SE 23:24:00 73° E 23:30:23 10° NNE
Cosmos 1862 Rocket 4.4 23:23:56 44° W 23:24:04 44° WNW 23:28:18 10° N
Cosmos 1943 3.2 23:34:58 71° WSW 23:35:28 77° WNW 23:41:11 10° NNE
SL-8 R/B 4.2 23:30:56 10° WNW 23:35:24 58° NNW 23:35:24 58° NNW
Cosmos 1606 4.3 23:38:26 34° NW 23:38:26 34° NW 23:41:09 10° N
Cosmos 2100 Rocket 4.1 23:39:06 60° E 23:39:06 60° E 23:45:17 10° NNE
Terra 2.6 23:40:06 44° W 23:40:06 44° W 23:44:20 10° NNW
Cosmos 2369 Rocket 2.7 23:35:02 10° NW 23:40:27 47° WSW 23:40:32 47° WSW
Cosmos 1802 Rocket 4.4 23:43:29 49° ENE 23:43:29 49° ENE 23:48:59 10° NNE
CZ-2C R/B 2.8 23:38:59 10° NNE 23:43:41 64° NE 23:43:41 64° NE
Cosmos 1461 3.8 23:39:37 10° NW 23:43:21 54° NW 23:43:21 54° NW
USA 267 3.1 23:37:59 10° NE 23:44:33 83° SE 23:46:13 54° SW
ALOS 2 4.4 23:45:52 24° NE 23:45:52 24° NE 23:48:27 10° N
Cosmos 2061 Rocket 4.3 23:47:48 55° E 23:47:48 55° E 23:53:48 10° NNE
Meteor 1-11 Rocket 3.8 23:43:16 10° N 23:48:26 71° NE 23:48:26 71° NE
Mayak 1.3 23:47:56 10° NE 23:48:44 14° NE 23:48:44 14° NE
